National Weather Service Raw Text Product

Displaying AFOS PIL: RWRIA Received: 2018-02-14 07:00 UTC


303 
ASUS43 KDMX 140706
RWRIA 

WEATHER ROUNDUP FOR IOWA
NATIONAL WEATHER SERVICE DES MOINES IA
100 AM CST WED FEB 14 2018

NOTE: "FAIR" INDICATES FEW OR NO CLOUDS BELOW 12,000 FEET WITH NO
SIGNIFICANT WEATHER AND/OR OBSTRUCTIONS TO VISIBILITY.

* - THESE STATIONS ARE NOT NWS STATIONS...THUS NOT UNDER NWS
QUALITY CONTROL.  THEY ALSO DO NOT REPORT WEATHER SUCH 
AS PRECIPITATION OR FOG.  

IAZ001>003-012>014-020>022-031>034-043>046-140800-
   NORTHWEST IOWA
  
CITY           SKY/WX    TMP DP  RH WIND       PRES   REMARKS
CARROLL *      CLOUDY    32  27  80 SW13      30.06F WCI  22          
CHEROKEE *     CLOUDY    23  21  89 S3        30.03F                  
DENISON *      CLOUDY    28  25  86 CALM      30.08F                  
LE MARS *      CLOUDY    19  18  93 CALM      30.03F                  
ORANGE CITY *  CLOUDY    21  19  93 S8        30.00F WCI  12          
SHELDON *      CLOUDY    21  21 100 S9        29.99F WCI  11          
SIOUX CITY     CLOUDY    19  16  88 E7        30.04F WCI  10          
SPENCER        CLOUDY    21  17  84 SW9       30.02F WCI  11          
STORM LAKE *   CLOUDY    30  23  74 SW15      30.02F WCI  19          
$$
 
IAZ055>058-069>071-079>083-090>094-140800-
   SOUTHWEST IOWA
  
CITY           SKY/WX    TMP DP  RH WIND       PRES   REMARKS
ATLANTIC *     CLOUDY    19  19 100 CALM      30.10F                  
AUDUBON *      CLOUDY    32  27  80 CALM      30.09F                  
CLARINDA *     CLEAR     28  27  93 S6        30.15F WCI  22          
COUNCIL BLFS * CLOUDY    30  30 100 S7        30.09F WCI  23          
CRESTON *      CLEAR     32  27  80 S10       30.12F WCI  24          
HARLAN  *      CLOUDY    21  21 100 S6        30.12F FOG     WCI  14  
LAMONI         CLEAR     32  24  72 S9        30.14F WCI  24          
RED OAK *      PTCLDY    28  25  86 S3        30.12F                  
SHENANDOAH *   CLEAR     32  25  74 CALM      30.13S                  
$$
 
IAZ047>049-059>061-072>074-084-140800-
   CENTRAL IOWA
  
CITY           SKY/WX    TMP DP  RH WIND       PRES   REMARKS
AMES           CLOUDY    17  14  88 CALM      30.10F                  
ANKENY *       CLOUDY    30  23  74 S7        30.12F WCI  23          
BOONE *        CLOUDY    32  23  69 SW10      30.08F WCI  24          
CHARITON *     CLEAR     30  25  80 S10       30.14F WCI  21          
DES MOINES     CLOUDY    31  23  72 S12       30.12F WCI  22          
GRINNELL*      CLOUDY    29  23  78 S12       30.13F WCI  19          
KNOXVILLE *    CLEAR     34  23  64 S12       30.12F WCI  25          
MARSHALLTOWN   CLEAR     31  23  72 SW12      30.09F WCI  22          
NEWTON *       CLOUDY    30  23  74 S13       30.12F WCI  20          
PELLA *        CLOUDY    34  25  69 SW9       30.15F WCI  26          
PERRY *        FAIR      17  15  94 S9        30.10F WCI   5          
$$
 
IAZ004>006-015-016-023>025-035-036-140800-
   NORTH CENTRAL IOWA
  
CITY           SKY/WX    TMP DP  RH WIND       PRES   REMARKS
ALGONA *       CLOUDY    18 N/A N/A S14       30.03F WCI   4          
CLARION *      CLOUDY    18  18 100 S6        30.06S WCI   9          
ESTHERVILLE    CLOUDY    21  18  88 SW13      30.01F WCI   9          
FORT DODGE *   CLOUDY    29  24  82 S12       30.05F WCI  19          
MASON CITY     CLOUDY    11   8  88 S9        30.06F FOG     WCI  -2  
FOREST CITY *  FAIR      23  21  93 SW3       30.04F                  
WEBSTER CITY * CLOUDY    19  16  86 S12       30.05F WCI   7          
IOWA FALLS *   FAIR      24  20  85 S13       30.08F WCI  12          
$$

IAZ007>011-017>019-026>030-037>042-050>054-066-140800-
   NORTHEAST IOWA
  
CITY           SKY/WX    TMP DP  RH WIND       PRES   REMARKS
CEDAR RAPIDS   FAIR      29  22  75 S14       30.13F WCI  18          
CHARLES CITY * FAIR      21  21 100 S12       30.08F WCI   9          
CLINTON *      FAIR      22  20  92 S8        30.18F WCI  12          
DECORAH *      FAIR      28  23  80 SW9G17    30.06F WCI  20          
DUBUQUE        FAIR      22  17  81 S15       30.12F HAZE    WCI   9  
MONTICELLO *   FAIR      23  19  86 S8        30.14F WCI  14          
OELWEIN *      FAIR      19  19 100 S10       30.11F WCI   8          
WATERLOO       FAIR      22  19  89 S6        30.11F WCI  14          
$$
 
IAZ064-065-067-068-078-140800-
   EAST CENTRAL IOWA
  
CITY           SKY/WX    TMP DP  RH WIND       PRES   REMARKS
DAVENPORT      FAIR      29  22  75 S7        30.20F WCI  22          
IOWA CITY      FAIR      20  17  88 CALM      30.18F FOG              
MT. PLEASANT * CLOUDY    32  25  74 S10       30.20S WCI  24          
MUSCATINE *    FOG       16  12  86 CALM      30.20F VSB<1/4          
QUAD CITIES    FAIR      30  24  78 S7        30.18F WCI  23          
$$
 
IAZ062-063-075>077-085>089-095>099-140800-
   SOUTHEAST IOWA
  
CITY           SKY/WX    TMP DP  RH WIND       PRES   REMARKS
BURLINGTON     CLOUDY    29  23  78 S7        30.20F WCI  22          
FAIRFIELD *    CLOUDY    30  23  74 S9        30.17F WCI  22          
FORT MADISON * CLOUDY    34  27  75 S9        30.21F WCI  26          
KEOKUK *       CLOUDY    32  27  80 S7        30.21F WCI  26          
OSKALOOSA *    FAIR      26  21  81 S9        30.16F WCI  16          
OTTUMWA        CLOUDY    28  20  71 S10       30.16S WCI  19          
WASHINGTON *   CLOUDY    30  27  86 S12       30.18F WCI  21          
$$

ABBREVIATIONS USED IN REMARKS
   TC - TEMPERATURES IN CELSIUS
  WCI - WIND CHILL INDEX
   HX - HEAT INDEX
  VSB - VISIBILITY  
$$

  

442 
ASUS43 KDMX 140701
RWRIA 

WEATHER ROUNDUP FOR IOWA
NATIONAL WEATHER SERVICE DES MOINES IA
100 AM CST WED FEB 14 2018

NOTE: "FAIR" INDICATES FEW OR NO CLOUDS BELOW 12,000 FEET WITH NO
SIGNIFICANT WEATHER AND/OR OBSTRUCTIONS TO VISIBILITY.

* - THESE STATIONS ARE NOT NWS STATIONS...THUS NOT UNDER NWS
QUALITY CONTROL.  THEY ALSO DO NOT REPORT WEATHER SUCH 
AS PRECIPITATION OR FOG.  

IAZ001>003-012>014-020>022-031>034-043>046-140800-
   NORTHWEST IOWA
  
CITY           SKY/WX    TMP DP  RH WIND       PRES   REMARKS
CARROLL *      CLOUDY    32  27  80 SW13      30.06F WCI  22          
CHEROKEE *     CLOUDY    23  21  89 S3        30.03F                  
DENISON *      CLOUDY    28  25  86 CALM      30.08F                  
LE MARS *      CLOUDY    19  18  93 CALM      30.03F                  
ORANGE CITY *  CLOUDY    21  19  93 S8        30.00F WCI  12          
SHELDON *      CLOUDY    21  21 100 S9        29.99F WCI  11          
SIOUX CITY     CLOUDY    19  16  88 E7        30.04F WCI  10          
SPENCER        CLOUDY    21  17  84 SW9       30.02F WCI  11          
STORM LAKE *   CLOUDY    30  23  74 SW15      30.02F WCI  19          
$$
 
IAZ055>058-069>071-079>083-090>094-140800-
   SOUTHWEST IOWA
  
CITY           SKY/WX    TMP DP  RH WIND       PRES   REMARKS
ATLANTIC *     CLOUDY    19  19 100 CALM      30.10F                  
AUDUBON *      CLOUDY    32  27  80 CALM      30.09F                  
CLARINDA *     CLEAR     28  27  93 S6        30.15F WCI  22          
COUNCIL BLFS * CLOUDY    30  30 100 S7        30.09F WCI  23          
CRESTON *      CLEAR     32  27  80 S10       30.12F WCI  24          
HARLAN  *      CLOUDY    21  21 100 S6        30.12F FOG     WCI  14  
LAMONI         CLEAR     32  24  72 S9        30.14F WCI  24          
RED OAK *      PTCLDY    28  25  86 S3        30.12F                  
SHENANDOAH *   CLEAR     32  25  74 CALM      30.13S                  
$$
 
IAZ047>049-059>061-072>074-084-140800-
   CENTRAL IOWA
  
CITY           SKY/WX    TMP DP  RH WIND       PRES   REMARKS
AMES           CLOUDY    17  14  88 CALM      30.10F                  
ANKENY *       CLOUDY    30  23  74 S7        30.12F WCI  23          
BOONE *        CLOUDY    32  23  69 SW10      30.08F WCI  24          
CHARITON *     CLEAR     30  25  80 S10       30.14F WCI  21          
DES MOINES     CLOUDY    31  23  72 S12       30.12F WCI  22          
GRINNELL*      CLOUDY    29  23  78 S12       30.13F WCI  19          
KNOXVILLE *    CLEAR     34  23  64 S12       30.12F WCI  25          
MARSHALLTOWN   CLEAR     31  23  72 SW12      30.09F WCI  22          
NEWTON *       CLOUDY    30  23  74 S13       30.12F WCI  20          
PELLA *        CLOUDY    34  25  69 SW9       30.15F WCI  26          
$$
 
IAZ004>006-015-016-023>025-035-036-140800-
   NORTH CENTRAL IOWA
  
CITY           SKY/WX    TMP DP  RH WIND       PRES   REMARKS
CLARION *      CLOUDY    18  18 100 S6        30.06S WCI   9          
ESTHERVILLE    CLOUDY    21  18  88 SW13      30.01F WCI   9          
FORT DODGE *   CLOUDY    29  24  82 S12       30.05F WCI  19          
MASON CITY     CLOUDY    11   8  88 S9        30.06F FOG     WCI  -2  
FOREST CITY *  FAIR      23  21  93 SW3       30.04F                  
WEBSTER CITY * CLOUDY    19  16  86 S12       30.05F WCI   7          
IOWA FALLS *   FAIR      24  20  85 S13       30.08F WCI  12          
$$

IAZ007>011-017>019-026>030-037>042-050>054-066-140800-
   NORTHEAST IOWA
  
CITY           SKY/WX    TMP DP  RH WIND       PRES   REMARKS
CEDAR RAPIDS   FAIR      29  22  75 S14       30.13F WCI  18          
CHARLES CITY * FAIR      21  21 100 S12       30.08F WCI   9          
CLINTON *      FAIR      22  20  92 S8        30.18F WCI  12          
DECORAH *      FAIR      28  23  80 SW9G17    30.06F WCI  20          
DUBUQUE        FAIR      22  17  81 S15       30.12F HAZE    WCI   9  
MONTICELLO *   FAIR      23  19  86 S8        30.14F WCI  14          
OELWEIN *      FAIR      19  19 100 S10       30.11F WCI   8          
WATERLOO       FAIR      22  19  89 S6        30.11F WCI  14          
$$
 
IAZ064-065-067-068-078-140800-
   EAST CENTRAL IOWA
  
CITY           SKY/WX    TMP DP  RH WIND       PRES   REMARKS
DAVENPORT      FAIR      29  22  75 S7        30.20F WCI  22          
IOWA CITY      HAZE      19  14  81 CALM      30.18F VSB 1            
MT. PLEASANT * CLOUDY    32  25  74 S10       30.20S WCI  24          
MUSCATINE *    FOG       16  12  86 CALM      30.20F VSB<1/4          
QUAD CITIES    FAIR      30  24  78 S7        30.18F WCI  23          
$$
 
IAZ062-063-075>077-085>089-095>099-140800-
   SOUTHEAST IOWA
  
CITY           SKY/WX    TMP DP  RH WIND       PRES   REMARKS
BURLINGTON     CLOUDY    29  23  78 S7        30.20F WCI  22          
FAIRFIELD *    CLOUDY    30  23  74 S9        30.17F WCI  22          
FORT MADISON * CLOUDY    34  27  75 S9        30.21F WCI  26          
KEOKUK *       CLOUDY    32  27  80 S7        30.21F WCI  26          
OSKALOOSA *    FAIR      26  21  81 S9        30.16F WCI  16          
OTTUMWA        CLOUDY    28  20  71 S10       30.16S WCI  19          
WASHINGTON *   CLOUDY    30  27  86 S12       30.18F WCI  21          
$$

ABBREVIATIONS USED IN REMARKS
   TC - TEMPERATURES IN CELSIUS
  WCI - WIND CHILL INDEX
   HX - HEAT INDEX
  VSB - VISIBILITY  
$$